Change the Weather History Date:

Monday, December 31, 2012

  Actual Average Record
Temperature  
Mean Temperature 42 °F -  
Max Temperature 48 °F 54 °F 73 °F (2004)
Min Temperature 37 °F 37 °F 26 °F (2000)
Degree Days  
Heating Degree Days 22    
Moisture  
Dew Point 38 °F    
Average Humidity 84    
Maximum Humidity 100    
Minimum Humidity 49    
Precipitation  
Precipitation 0.00 in - - ()
Sea Level Pressure  
Sea Level Pressure 30.10 in    
Wind  
Wind Speed 8 mph (SE)    
Max Wind Speed 15 mph    
Max Gust Speed 21 mph    
Visibility 6 miles    
Events Rain    
Averages and records for this station are not official NWS values.
T = Trace of Precipitation, MM = Missing Value Source: NWS Daily Summary

Daily Weather History Graph

Daily Weather History Graph

Search for Another Location

Airport or City:

Trip Planner

Search our weather history database for the weather conditions in past years. The results will help you decide how hot, cold, wet, or windy it might be!

Date:

Astronomy

Dec. 31, 2012 Rise Set
Actual Time 7:30 AM CST 5:31 PM CST
Civil Twilight 7:02 AM CST 5:58 PM CST
Nautical Twilight 6:32 AM CST 6:29 PM CST
Astronomical Twilight 6:01 AM CST 6:59 PM CST
Moon 8:51 PM CST (12/31) 9:22 AM CST (12/31)
Length of Visible Light 10h 55m
Length of Day
10h 01m
Waning Gibbous, 90% of the Moon is Illuminated
Dec 31
Waning Gibbous
Jan 4
Last Quarter
Jan 11
New
Jan 18
First Quarter
Jan 26
Full

Hourly Weather History & Observations

Time (CST) Temp. Windchill Dew Point Humidity Pressure Visibility Wind Dir Wind Speed Gust Speed Precip Events Conditions
12:15 AM 42.8 °F 37.0 °F 24.8 °F 49% 30.22 in 10.0 mi SSE 10.4 mph - N/A   Overcast
12:35 AM 42.8 °F 37.0 °F 24.8 °F 49% 30.20 in 10.0 mi SSE 10.4 mph - N/A   Overcast
12:55 AM 42.8 °F 38.6 °F 26.6 °F 53% 30.20 in 10.0 mi SSE 6.9 mph - N/A   Overcast
1:15 AM 42.8 °F 38.6 °F 26.6 °F 53% 30.20 in 10.0 mi SSE 6.9 mph - N/A   Overcast
1:35 AM 42.8 °F 37.5 °F 26.6 °F 53% 30.20 in 10.0 mi SSE 9.2 mph - N/A   Overcast
1:55 AM 42.8 °F 38.0 °F 26.6 °F 53% 30.19 in 10.0 mi SSE 8.1 mph - N/A   Overcast
2:15 AM 42.8 °F 37.5 °F 28.4 °F 57% 30.18 in 10.0 mi SSE 9.2 mph 16.1 mph N/A   Overcast
2:35 AM 42.8 °F 37.0 °F 28.4 °F 57% 30.16 in 10.0 mi SSE 10.4 mph - N/A   Overcast
2:55 AM 41.0 °F 34.3 °F 32.0 °F 70% 30.17 in 10.0 mi South 11.5 mph - N/A   Overcast
3:15 AM 41.0 °F 34.3 °F 32.0 °F 70% 30.16 in 5.0 mi SSE 11.5 mph - N/A   Haze
3:35 AM 39.2 °F 33.0 °F 33.8 °F 81% 30.16 in 4.0 mi SSE 9.2 mph - N/A   Light Drizzle
3:55 AM 39.2 °F 32.0 °F 37.4 °F 93% 30.15 in 3.0 mi SSE 11.5 mph - N/A Rain Rain
4:15 AM 37.4 °F 31.4 °F 37.4 °F 100% 30.14 in 3.0 mi SE 8.1 mph - N/A   Drizzle
4:35 AM 37.4 °F 30.8 °F 37.4 °F 100% 30.14 in 7.0 mi SE 9.2 mph - N/A   Overcast
4:55 AM 37.4 °F 29.8 °F 37.4 °F 100% 30.11 in 7.0 mi SE 11.5 mph - N/A   Overcast
5:47 AM 39.2 °F 30.8 °F 35.6 °F 87% 30.08 in 5.0 mi SE 15.0 mph 20.7 mph N/A Rain Light Rain
6:47 AM 39.2 °F 33.6 °F 37.4 °F 93% 30.10 in 5.0 mi SSE 8.1 mph - N/A Rain Light Rain
7:47 AM 39.2 °F 32.5 °F 37.4 °F 93% 30.06 in 3.0 mi SE 10.4 mph - N/A Rain Rain
8:47 AM 41.0 °F 34.3 °F 37.4 °F 87% 30.07 in 3.0 mi SSE 11.5 mph 19.6 mph N/A Rain Light Rain
9:47 AM 42.8 °F 39.3 °F 39.2 °F 87% 30.08 in 3.0 mi SSW 5.8 mph - N/A Rain Rain
10:47 AM 42.8 °F - 39.2 °F 87% 30.09 in 0.5 mi Calm Calm - N/A   Heavy Drizzle
11:47 AM 42.8 °F 41.1 °F 39.2 °F 87% 30.08 in 0.5 mi NW 3.5 mph - N/A Rain Rain
12:47 PM 42.8 °F - 41.0 °F 93% 30.04 in 0.5 mi Calm Calm - N/A Rain Rain
1:14 PM 42.8 °F 41.1 °F 41.0 °F 93% 30.11 in 2.0 mi East 3.5 mph - N/A   Overcast
1:55 PM 46.4 °F 42.9 °F 42.8 °F 87% 29.98 in 7.0 mi SE 6.9 mph - N/A   Overcast
2:56 PM 48.2 °F - 44.6 °F 87% 29.98 in 7.0 mi SSE 4.6 mph - N/A   Overcast
3:58 PM 48.2 °F - 44.6 °F 87% 29.98 in 7.0 mi South 5.8 mph - N/A   Overcast
7:47 PM 48.2 °F - 46.4 °F 93% 30.01 in 7.0 mi NNE 6.9 mph - N/A   Overcast
8:47 PM 48.2 °F - 44.6 °F 87% 30.03 in 3.0 mi Calm Calm - N/A   Overcast
9:15 PM 46.4 °F - 46.4 °F 100% 30.03 in 5.0 mi Calm Calm - N/A   Overcast
9:35 PM 46.4 °F 45.2 °F 46.4 °F 100% 30.03 in 5.0 mi NE 3.5 mph - N/A   Overcast
9:47 PM 48.2 °F - 44.6 °F 87% 30.04 in 3.0 mi Calm Calm - N/A   Overcast
9:55 PM 46.4 °F 44.3 °F 46.4 °F 100% 30.04 in 5.0 mi NE 4.6 mph - N/A   Overcast
10:15 PM 46.4 °F 44.3 °F 46.4 °F 100% 30.05 in 5.0 mi NE 4.6 mph - N/A   Scattered Clouds
10:35 PM 46.4 °F 45.2 °F 46.4 °F 100% 30.05 in 5.0 mi North 3.5 mph - N/A   Clear
11:15 PM 44.6 °F 40.2 °F 44.6 °F 100% 30.05 in 5.0 mi North 8.1 mph - N/A   Mostly Cloudy
11:35 PM 44.6 °F 39.7 °F 44.6 °F 100% 30.05 in 7.0 mi North 9.2 mph - N/A   Mostly Cloudy
11:55 PM 44.6 °F 40.7 °F 44.6 °F 100% 30.05 in 7.0 mi North 6.9 mph - N/A   Overcast